TimeCST,TemperatureF,Dew PointF,Humidity,Sea Level PressureIn,VisibilityMPH,Wind Direction,Wind SpeedMPH,Gust SpeedMPH,PrecipitationIn,Events,Conditions,WindDirDegrees,DateUTC
12:45 AM,71.6,69.8,94,29.93,5.0,North,5.8,-,N/A,Rain,Light Rain,10,2013-03-01 06:45:00
1:44 AM,71.6,69.8,94,29.91,5.0,NNW,5.8,-,N/A,,Overcast,340,2013-03-01 07:44:00
2:46 AM,71.6,69.8,94,29.89,5.0,NNW,5.8,-,N/A,,Overcast,340,2013-03-01 08:46:00
3:46 AM,71.6,69.8,94,29.90,5.0,NNW,6.9,-,N/A,,Overcast,340,2013-03-01 09:46:00
4:44 AM,71.6,69.8,94,29.91,5.0,NW,9.2,-,N/A,Rain,Light Rain,320,2013-03-01 10:44:00
5:43 AM,71.6,69.8,94,29.91,5.0,NW,8.1,-,N/A,Rain,Light Rain,320,2013-03-01 11:43:00
6:42 AM,71.6,69.8,94,29.94,5.0,NNW,5.8,-,N/A,Rain,Light Rain,340,2013-03-01 12:42:00
7:44 AM,71.6,69.8,94,29.95,6.0,NNW,3.5,-,N/A,,Overcast,340,2013-03-01 13:44:00
8:48 AM,71.6,68.0,88,29.98,6.0,NNW,8.1,-,N/A,,Overcast,330,2013-03-01 14:48:00
9:42 AM,73.4,69.8,88,29.99,6.0,NNW,8.1,-,N/A,,Overcast,330,2013-03-01 15:42:00
10:50 AM,75.2,68.0,78,29.98,6.0,NNW,11.5,-,N/A,,Overcast,330,2013-03-01 16:50:00
11:47 AM,75.2,68.0,78,29.96,6.0,NW,12.7,-,N/A,,Overcast,320,2013-03-01 17:47:00
12:41 PM,75.2,66.2,73,29.94,6.0,NNW,12.7,-,N/A,,Overcast,340,2013-03-01 18:41:00
1:43 PM,71.6,66.2,83,29.93,6.0,NW,15.0,-,N/A,,Overcast,320,2013-03-01 19:43:00
2:43 PM,71.6,64.4,78,29.92,6.0,NW,19.6,-,N/A,,Overcast,320,2013-03-01 20:43:00
3:44 PM,69.8,62.6,78,29.93,6.0,NW,17.3,-,N/A,,Overcast,320,2013-03-01 21:44:00
4:47 PM,69.8,62.6,78,29.94,6.0,NNW,13.8,-,N/A,,Overcast,340,2013-03-01 22:47:00
5:43 PM,69.8,62.6,78,29.97,6.0,NW,13.8,-,N/A,,Overcast,320,2013-03-01 23:43:00
6:47 PM,69.8,60.8,73,29.98,6.0,NW,10.4,-,N/A,,Overcast,320,2013-03-02 00:47:00
7:42 PM,69.8,60.8,73,30.01,6.0,NW,9.2,-,N/A,,Overcast,310,2013-03-02 01:42:00
8:43 PM,69.8,60.8,73,30.03,6.0,NNW,11.5,-,N/A,,Overcast,330,2013-03-02 02:43:00
9:49 PM,68.0,59.0,73,30.04,6.0,NNW,10.4,-,N/A,,Overcast,330,2013-03-02 03:49:00
10:43 PM,68.0,57.2,68,30.04,6.0,NNW,10.4,-,N/A,,Overcast,330,2013-03-02 04:43:00
11:46 PM,68.0,59.0,73,30.04,6.0,NNW,10.4,-,N/A,,Overcast,330,2013-03-02 05:46:00